TimeCST,TemperatureF,Dew PointF,Humidity,Sea Level PressureIn,VisibilityMPH,Wind Direction,Wind SpeedMPH,Gust SpeedMPH,PrecipitationIn,Events,Conditions,WindDirDegrees,DateUTC
12:53 AM,43.0,39.9,89,30.14,6.0,North,4.6,-,0.00,,Scattered Clouds,10,2012-12-12 06:53:00
1:53 AM,42.1,39.0,89,30.14,6.0,North,4.6,-,N/A,,Mostly Cloudy,360,2012-12-12 07:53:00
2:53 AM,42.1,39.0,89,30.10,8.0,NNE,6.9,-,N/A,,Clear,30,2012-12-12 08:53:00
3:53 AM,42.1,37.9,85,30.12,9.0,North,3.5,-,N/A,,Mostly Cloudy,350,2012-12-12 09:53:00
4:53 AM,42.1,37.9,85,30.14,8.0,North,3.5,-,0.00,Rain,Light Rain,360,2012-12-12 10:53:00
5:53 AM,42.1,37.9,85,30.16,9.0,NNW,4.6,-,0.00,Rain,Light Rain,340,2012-12-12 11:53:00
6:53 AM,42.1,37.9,85,30.17,8.0,Calm,Calm,-,0.00,Rain,Light Rain,0,2012-12-12 12:53:00
7:53 AM,43.0,39.0,86,30.17,7.0,Variable,3.5,-,0.00,,Mostly Cloudy,0,2012-12-12 13:53:00
8:53 AM,44.1,37.9,79,30.21,8.0,NNW,5.8,-,N/A,,Mostly Cloudy,330,2012-12-12 14:53:00
9:53 AM,45.0,39.0,80,30.19,8.0,NNE,5.8,-,N/A,,Overcast,30,2012-12-12 15:53:00
10:53 AM,48.0,41.0,77,30.17,9.0,ENE,5.8,-,N/A,,Overcast,60,2012-12-12 16:53:00
11:53 AM,48.9,39.9,71,30.17,10.0,Variable,5.8,-,N/A,,Overcast,0,2012-12-12 17:53:00
12:53 PM,48.9,39.9,71,30.15,10.0,North,4.6,-,N/A,,Overcast,350,2012-12-12 18:53:00
1:53 PM,50.0,39.9,68,30.15,10.0,NNE,5.8,-,N/A,,Overcast,20,2012-12-12 19:53:00
2:53 PM,53.1,39.9,61,30.17,10.0,NNW,5.8,-,N/A,,Mostly Cloudy,340,2012-12-12 20:53:00
3:53 PM,53.1,39.0,59,30.17,10.0,Calm,Calm,-,N/A,,Scattered Clouds,0,2012-12-12 21:53:00
4:53 PM,50.0,39.0,66,30.19,10.0,NNW,4.6,-,N/A,,Scattered Clouds,340,2012-12-12 22:53:00
5:53 PM,46.0,37.9,73,30.20,10.0,North,3.5,-,N/A,,Clear,360,2012-12-12 23:53:00
6:53 PM,44.1,37.0,76,30.21,10.0,North,3.5,-,N/A,,Clear,10,2012-12-13 00:53:00
7:53 PM,44.1,36.0,73,30.21,10.0,North,3.5,-,N/A,,Clear,350,2012-12-13 01:53:00
8:53 PM,39.9,35.1,83,30.22,10.0,Calm,Calm,-,N/A,,Clear,0,2012-12-13 02:53:00
9:53 PM,36.0,33.1,89,30.24,7.0,Calm,Calm,-,N/A,,Clear,0,2012-12-13 03:53:00
10:53 PM,34.0,32.0,92,30.25,8.0,Calm,Calm,-,N/A,,Clear,0,2012-12-13 04:53:00
11:53 PM,37.0,33.1,86,30.25,9.0,NW,5.8,-,N/A,,Clear,320,2012-12-13 05:53:00